Wind_Speed
22 25 29 30 28 27 25 26 26 26 26 27 29 28 27 25 24 24 24 24 24 24 24 23 21 18 16 16 15 14 15 15 14 16 15 13 13 13 13 13 13 14 14 13 13 12 12 12 11 11 10 12 12 12 13 13 13 13 13 12 13 14 13 13 14 15 15 15 15 15 14 14 14 14 14 14 14 14 14 13 13 14 14 15 15
24 27 29 31 29 28 27 26 26 26 27 28 29 28 27 25 24 24 25 24 24 24 24 23 20 18 16 15 14 13 14 14 12 14 14 13 12 12 12 12 13 13 13 13 12 11 12 11 10 10 9 12 12 12 12 12 12 12 13 11 12 13 12 12 13 13 12 12 13 14 14 15 14 14 15 14 14 13 13 15 14 14 15 14 15
26 25 28 31 29 28 27 26 26 26 27 28 28 28 27 26 25 25 25 24 23 24 23 22 19 18 16 15 14 13 13 12 11 12 14 14 11 11 12 11 12 12 11 11 11 11 11 11 10 9 9 11 11 11 12 13 12 10 12 11 10 12 12 11 11 10 10 11 15 17 16 16 15 14 14 14 13 13 14 16 16 16 16 15 16
25 24 27 31 29 28 27 27 26 26 27 27 28 28 28 27 26 26 25 24 23 24 23 20 18 17 16 15 14 13 12 11 11 11 13 14 13 12 11 10 10 10 10 10 11 11 10 10 10 10 9 10 11 11 11 12 12 10 11 10 10 11 10 11 12 12 11 11 15 17 16 15 14 14 14 14 14 14 16 17 17 16 15 15 15
24 23 27 30 27 27 27 27 26 26 26 27 28 28 28 27 27 27 25 23 24 24 22 19 17 16 15 15 14 14 12 11 11 11 12 14 14 14 12 10 10 10 10 10 10 10 10 10 10 9 9 10 10 10 10 11 11 10 10 10 10 10 10 13 15 14 12 11 11 11 12 12 13 13 14 14 14 14 16 16 15 15 15 15 15
22 23 26 26 24 26 28 27 26 26 26 27 27 28 28 28 27 26 24 24 25 24 21 18 17 16 15 15 15 14 12 11 10 11 12 13 15 14 13 11 10 10 9 9 9 10 10 9 10 9 9 10 10 10 10 10 9 9 9 9 9 10 11 14 14 11 9 8 9 8 8 11 12 13 13 13 14 14 14 15 15 14 15 15 14
22 23 25 24 23 25 28 27 27 27 27 27 27 28 28 28 28 26 25 24 24 22 20 18 17 17 16 15 15 13 12 11 10 11 12 12 14 14 13 11 10 10 9 9 9 9 9 9 9 9 8 9 9 9 10 10 9 8 8 8 9 10 12 13 12 11 7 4 5 7 8 10 11 12 12 12 14 13 12 14 14 15 14 13 14
22 23 24 23 22 25 29 28 28 27 27 27 27 28 28 29 28 26 25 23 22 21 19 18 18 17 16 15 14 13 12 12 11 12 13 13 13 13 12 11 11 10 10 9 9 8 8 8 8 8 8 8 9 9 9 8 8 8 8 8 9 11 14 14 12 12 11 7 6 8 9 10 11 12 12 12 12 12 12 14 15 14 14 13 14
24 24 24 23 23 28 30 29 29 28 28 27 27 28 28 29 27 25 23 22 21 20 19 19 18 17 16 15 14 13 12 12 12 13 13 13 13 13 12 11 11 11 11 10 9 9 8 8 8 8 7 8 9 8 8 7 7 8 8 8 11 13 14 14 13 12 10 8 8 9 10 11 12 12 11 11 12 12 12 14 15 15 14 14 14
25 25 24 23 26 30 30 30 29 28 28 28 28 29 29 29 26 25 22 22 21 20 20 19 17 16 16 15 14 13 12 12 12 13 13 14 14 14 13 12 11 11 11 10 10 9 9 9 8 8 7 9 9 7 7 6 7 8 8 9 12 12 12 11 11 11 8 8 9 9 11 12 12 12 12 11 12 12 11 11 13 15 14 14 14
24 26 25 26 29 31 30 29 29 28 28 29 29 29 29 28 26 24 23 22 21 20 19 18 17 16 15 14 13 12 12 12 11 13 14 14 14 14 13 12 12 11 11 10 10 9 10 9 8 7 8 9 8 7 6 6 7 7 8 9 10 10 8 7 7 7 7 9 9 9 10 12 13 13 12 11 11 13 12 11 13 15 15 15 15
23 27 24 28 32 31 31 30 29 28 29 29 29 28 28 27 25 24 22 22 21 20 19 18 16 15 14 13 12 12 11 11 11 12 13 15 15 14 13 11 11 11 11 11 10 9 9 10 8 7 8 9 8 6 5 6 7 7 7 7 8 8 6 7 6 5 7 10 9 9 11 12 13 13 12 12 13 13 13 12 13 15 15 15 15
24 26 24 30 33 32 31 30 29 28 29 29 28 28 27 26 25 23 22 21 20 19 18 17 16 15 13 12 11 10 10 10 10 11 11 13 14 15 13 11 11 10 11 11 10 10 10 10 8 7 7 8 7 5 4 4 5 5 5 5 7 9 10 11 9 5 7 9 9 10 11 12 13 12 11 12 13 12 12 12 12 14 14 14 14
22 22 23 29 32 32 31 31 30 29 29 29 28 28 27 25 24 22 21 20 19 18 17 16 15 14 12 11 10 10 10 10 10 10 10 11 13 13 13 12 11 10 10 10 9 9 10 9 8 7 7 7 6 5 4 3 3 2 2 3 5 8 9 8 7 6 7 8 9 10 12 12 12 11 11 11 11 12 13 12 12 13 14 13 13
20 20 23 27 30 30 30 30 30 30 30 30 29 28 26 25 23 22 20 19 18 16 15 15 15 12 11 11 11 10 10 9 9 10 10 11 12 12 12 12 11 10 10 9 8 8 8 8 7 7 7 7 6 5 4 3 1 1 1 1 4 5 5 3 4 5 6 7 8 10 12 13 12 10 11 11 11 11 12 12 13 12 12 13 12
20 23 24 27 29 29 30 29 29 30 30 30 29 27 25 24 23 22 20 17 15 14 14 14 13 11 11 11 11 11 10 10 9 10 11 11 11 11 11 11 11 9 9 9 8 8 8 8 8 6 6 7 6 5 5 5 3 2 2 1 3 3 5 6 4 4 6 7 8 10 12 12 11 10 10 11 11 11 11 12 12 11 11 12 12
22 24 23 27 29 28 27 26 28 30 30 30 28 27 25 23 22 21 19 17 15 14 13 13 12 11 11 11 11 11 10 10 10 10 10 10 10 10 10 11 10 9 8 8 8 7 8 7 7 5 5 6 6 5 6 5 4 3 3 3 4 5 8 9 6 5 7 7 7 11 12 12 11 10 10 10 10 10 10 11 11 9 10 11 11
21 23 23 26 29 28 25 24 26 28 28 28 27 26 25 23 21 19 18 16 16 14 13 11 10 10 11 11 11 11 11 11 11 10 9 10 10 10 11 9 10 9 8 8 7 7 6 6 6 5 6 6 6 5 5 4 4 4 5 5 6 8 9 9 6 6 7 6 9 12 11 11 10 10 10 9 9 10 10 10 10 9 11 11 10
17 19 22 26 29 29 26 25 25 27 29 27 25 26 24 23 20 18 18 16 15 14 12 11 10 10 11 12 12 11 11 11 11 10 9 9 10 10 10 9 9 9 8 7 6 6 6 5 5 6 7 8 7 5 3 4 3 4 6 6 7 8 7 6 5 6 7 6 11 13 9 10 10 9 10 9 9 9 10 10 9 8 10 10 9
16 17 18 22 29 30 28 27 26 29 29 26 25 25 23 21 19 18 18 16 15 13 12 11 11 11 11 12 13 12 11 10 10 10 9 9 9 10 9 10 10 9 8 7 6 6 6 5 5 5 6 9 9 6 4 3 3 5 6 6 7 5 5 4 5 6 6 7 12 11 8 11 9 8 9 9 9 9 8 8 9 8 8 9 9
15 16 14 19 30 32 30 29 29 28 26 25 24 23 22 20 19 18 17 16 15 14 13 12 13 12 12 13 12 11 10 10 10 10 10 9 9 9 9 10 9 9 9 8 7 6 6 5 4 4 5 8 10 7 4 4 4 6 7 7 6 3 3 3 5 6 6 9 12 9 8 11 8 8 9 8 9 8 7 8 8 7 7 8 9
14 14 16 21 29 30 29 30 30 27 25 25 23 22 22 20 18 18 17 16 14 14 14 14 14 14 14 14 12 10 10 11 11 10 10 10 9 9 9 10 9 9 9 8 7 6 6 5 4 4 5 7 10 8 5 5 5 6 6 6 5 3 3 4 4 6 7 10 11 8 9 10 8 8 8 8 8 7 7 7 7 7 7 6 8
14 14 18 21 25 28 28 29 29 27 26 24 23 23 23 21 19 18 18 16 15 15 14 14 14 14 14 13 12 12 12 12 12 11 11 11 10 10 10 10 9 9 9 8 7 7 6 4 5 6 7 9 10 8 7 6 6 7 7 5 4 4 5 4 4 6 8 11 9 7 8 10 8 7 8 8 7 7 7 6 6 7 6 6 7
17 16 17 18 20 23 24 25 28 28 27 24 23 24 22 21 19 18 18 16 16 15 14 13 12 13 13 10 10 11 12 12 12 10 11 11 10 11 11 11 10 9 8 8 8 7 6 5 6 8 7 8 8 7 8 8 7 8 7 6 5 5 5 4 4 6 9 12 8 5 9 10 9 8 7 8 7 7 6 4 6 6 6 6 7
18 16 16 16 15 18 21 22 26 27 24 25 26 24 22 20 18 17 17 16 14 12 13 13 11 11 12 10 9 9 10 10 10 10 11 11 11 11 11 11 10 10 9 9 9 8 8 7 7 7 6 7 6 6 7 8 7 7 7 6 5 5 5 4 5 6 8 8 5 6 8 9 10 9 7 7 7 8 6 4 5 6 6 6 5
18 16 15 16 14 17 20 20 24 26 24 25 25 22 21 19 16 15 16 16 13 11 11 11 10 10 10 9 9 9 10 11 11 12 11 11 14 12 11 11 10 11 11 10 10 9 9 9 8 7 6 5 5 5 6 7 7 6 6 5 5 6 5 5 5 6 8 6 5 7 8 9 9 9 8 7 7 8 6 5 6 5 6 6 5
15 15 15 15 15 17 18 18 21 25 25 23 20 20 21 19 16 14 14 13 12 11 10 9 9 9 8 7 8 8 9 12 13 12 11 12 15 13 12 11 10 12 12 11 11 10 9 9 8 6 5 5 5 5 6 6 6 5 6 6 6 6 5 6 6 6 10 8 7 8 9 9 8 9 9 7 6 7 7 5 5 4 5 5 3
13 14 15 15 16 16 17 18 18 22 23 20 19 21 22 19 18 17 14 13 12 11 10 9 8 8 9 7 7 7 7 10 12 10 11 11 12 13 12 12 11 12 13 10 10 11 9 8 7 6 5 5 5 5 7 7 6 5 5 6 7 7 5 6 7 6 9 10 9 8 9 10 8 8 9 7 6 6 6 5 5 4 5 5 3
14 15 16 16 16 17 17 18 19 21 21 19 18 20 22 18 17 17 15 15 13 10 9 8 7 7 10 7 5 7 7 7 8 9 10 9 9 11 11 12 12 11 12 10 9 9 9 8 7 6 6 6 6 5 7 8 7 5 6 6 7 7 6 5 6 6 7 10 9 9 10 10 9 8 8 8 6 6 6 5 5 4 4 5 3
14 14 15 16 17 18 17 17 17 19 19 18 17 17 18 16 15 15 13 13 11 8 8 7 6 7 8 6 4 7 7 6 8 7 7 6 6 9 9 10 11 9 10 9 7 7 7 7 7 7 7 6 6 6 7 8 7 6 6 7 6 6 7 6 6 7 7 9 9 10 10 9 9 7 8 8 7 7 6 5 4 4 3 3 2
14 14 15 16 18 18 17 17 16 17 17 17 17 16 15 14 13 13 10 10 8 7 8 7 6 6 5 5 5 6 6 6 7 7 6 6 6 7 7 9 11 11 9 7 7 7 6 7 7 6 6 6 6 6 7 8 8 7 5 6 6 5 7 6 5 5 6 8 9 10 10 8 7 6 6 6 7 7 7 6 5 4 3 2 2
14 14 15 17 19 17 17 18 17 17 17 16 16 15 14 13 12 11 9 8 7 6 7 7 6 4 4 5 8 7 7 7 6 7 8 7 7 6 6 8 11 13 10 8 7 7 7 8 7 6 6 5 6 6 7 8 7 7 6 5 5 6 6 4 5 5 4 6 7 9 9 7 6 5 4 5 7 7 7 7 6 5 4 3 2
13 15 17 19 19 17 16 16 15 15 15 14 15 14 13 13 11 10 9 8 7 7 7 8 6 4 4 6 8 7 8 9 8 8 7 8 8 7 8 8 10 12 10 8 8 8 8 8 8 8 7 7 7 6 8 8 5 5 4 2 3 5 7 6 6 6 4 4 4 6 8 6 6 5 4 3 5 6 6 6 6 6 5 4 3
14 16 18 19 18 16 14 14 14 15 13 13 12 12 13 13 11 9 9 8 7 8 8 8 7 5 4 5 7 10 11 11 10 11 9 10 10 9 9 8 9 11 10 8 9 9 9 9 9 8 8 8 8 8 8 7 5 4 3 3 2 3 9 8 6 5 5 4 4 5 5 5 5 4 4 3 2 3 4 4 5 5 6 5 4
14 16 17 18 17 15 13 12 14 14 12 11 11 11 12 13 11 9 9 8 7 7 6 8 8 6 7 6 9 13 12 10 12 13 12 11 11 10 9 7 7 9 9 10 10 9 9 9 8 8 7 8 8 7 7 7 6 5 5 5 2 2 6 7 4 4 5 4 4 4 4 4 4 4 4 2 1 2 2 2 3 3 4 4 4
15 16 16 18 16 14 12 12 13 13 11 10 11 9 6 9 9 9 9 7 7 7 6 7 8 8 9 9 12 13 10 10 12 13 13 12 11 10 8 7 8 8 7 9 8 7 8 7 7 8 7 7 8 8 7 7 7 6 6 4 3 2 4 6 3 2 4 3 3 3 3 4 5 4 4 2 2 1 2 3 3 2 2 2 2
14 14 16 17 16 14 11 11 12 11 10 9 8 6 8 9 9 9 9 8 8 8 6 6 7 8 9 9 11 11 9 10 12 11 11 11 10 7 6 6 9 10 7 7 6 5 7 5 6 6 7 7 7 8 8 7 7 7 6 4 3 2 3 4 2 2 3 2 2 2 2 3 3 4 5 4 3 3 1 2 2 2 2 1 1
13 12 15 16 15 14 11 10 11 11 11 10 7 7 9 11 10 10 10 11 10 10 8 8 8 8 8 8 9 10 10 9 9 9 9 9 7 5 5 5 7 9 7 7 7 5 5 5 6 6 7 7 7 8 7 7 6 5 6 5 3 2 3 3 2 2 2 2 2 1 1 2 2 2 3 4 4 4 2 2 2 2 4 3 2
11 10 13 12 11 12 10 9 10 10 12 12 10 10 10 11 12 13 14 15 14 12 11 10 8 7 7 8 7 8 9 9 7 7 7 7 6 5 6 7 7 7 8 9 9 6 4 4 5 5 6 6 6 6 6 7 5 3 7 6 3 2 2 1 1 1 2 2 1 1 1 1 2 1 2 3 4 4 3 4 3 3 4 3 2
10 11 12 11 9 10 11 12 12 12 14 14 12 12 12 13 15 15 14 13 12 9 8 7 6 5 6 7 6 6 7 8 7 5 5 5 4 5 7 8 8 7 8 10 10 8 6 6 5 5 5 5 5 6 6 7 6 6 7 6 4 3 2 1 1 1 2 2 1 2 2 2 1 0 1 2 4 5 6 4 4 5 5 4 3
10 9 12 13 11 11 11 13 14 13 13 12 11 11 14 14 12 11 10 9 8 7 7 6 5 5 6 7 6 6 5 6 6 5 5 4 3 4 4 7 9 9 9 10 10 8 7 6 5 5 6 6 7 8 8 9 7 7 7 4 3 4 2 1 1 1 2 2 2 2 3 3 2 1 1 2 3 1 6 9 6 4 4 4 1
12 14 15 13 11 10 10 12 14 12 10 10 12 12 10 9 8 7 8 8 7 7 6 6 6 6 6 7 7 6 6 5 6 5 4 4 4 3 3 5 10 11 9 11 12 8 7 6 5 6 6 5 6 6 9 10 7 6 6 4 3 2 0 1 0 1 1 2 3 3 3 3 2 2 3 3 4 5 4 7 6 2 3 3 2
18 17 13 10 8 6 5 9 13 11 9 9 9 6 6 9 8 8 7 7 7 7 7 6 6 6 6 6 7 7 6 5 5 6 5 5 4 3 3 3 7 9 8 11 12 8 7 6 5 5 5 5 5 4 5 6 5 9 7 3 3 3 2 2 1 1 1 2 3 3 3 3 3 3 3 3 4 6 6 6 5 2 3 8 8
16 12 9 8 5 3 5 9 12 10 9 7 7 8 10 11 11 10 9 9 9 8 7 6 6 6 6 5 5 5 6 5 5 5 5 5 5 4 5 4 5 7 7 9 11 10 9 9 7 6 6 6 6 4 4 5 4 9 6 1 2 3 2 4 4 3 3 3 2 3 3 3 4 3 3 4 4 6 7 7 8 7 7 13 12
14 12 12 10 9 5 4 8 14 13 10 9 9 9 11 11 11 9 9 9 9 8 7 6 6 6 6 6 5 5 5 5 4 4 4 4 4 4 4 4 4 7 9 8 8 10 11 11 9 8 7 6 4 4 4 5 3 4 4 2 2 2 1 4 6 4 3 3 3 4 3 3 4 3 3 4 5 6 7 8 9 9 10 13 12
12 13 13 11 11 11 10 15 17 12 10 11 9 8 9 8 8 7 7 7 7 7 7 6 6 6 6 5 5 4 4 5 4 4 4 3 3 2 2 3 3 4 8 10 7 8 11 11 9 8 7 6 3 4 5 5 4 4 6 4 2 2 4 7 6 4 3 3 3 4 5 4 4 5 4 5 6 7 7 8 9 10 11 13 13
15 14 14 11 10 10 10 14 17 13 10 9 8 8 8 7 6 5 5 6 6 7 7 6 6 6 5 5 4 4 3 4 4 4 4 4 3 2 1 2 3 3 4 7 7 7 7 9 8 7 7 6 5 5 5 5 5 5 6 7 4 3 6 7 4 4 5 3 4 5 6 6 6 7 6 7 7 8 8 8 9 10 11 12 12
22 19 18 14 12 11 9 11 14 15 13 11 9 10 9 7 5 4 4 5 6 7 7 6 6 5 5 4 4 5 4 4 4 3 4 3 3 2 1 1 2 3 4 5 6 6 5 6 6 5 5 5 5 4 3 4 5 5 6 8 8 5 5 5 3 2 4 4 5 5 6 7 7 8 7 7 8 8 8 8 9 10 11 11 11
23 21 20 17 16 15 12 11 11 12 14 13 11 11 10 8 6 5 5 6 7 7 6 6 6 5 5 4 4 5 4 4 4 4 3 3 2 2 2 2 2 2 3 5 5 5 6 6 5 4 4 4 3 3 3 3 4 4 5 6 8 8 8 6 3 3 3 3 5 5 6 7 7 7 7 7 7 8 8 8 8 9 10 10 11
17 16 17 16 17 17 15 13 10 10 12 13 12 11 10 8 7 6 6 7 7 6 6 6 6 6 5 5 4 5 5 4 4 4 3 3 3 3 3 3 4 3 4 5 6 6 6 7 6 6 5 4 3 3 3 2 2 4 5 5 6 8 9 7 4 5 6 4 5 5 7 7 7 7 6 6 7 7 8 8 8 9 9 10 11
20 20 20 21 22 21 19 16 12 11 13 13 12 12 11 9 8 7 6 7 6 6 6 6 5 6 6 5 5 5 5 5 5 4 3 4 5 5 5 5 5 5 5 5 5 5 6 7 7 7 7 6 5 4 3 2 3 3 3 4 3 3 4 4 5 7 6 4 4 5 7 7 8 8 5 6 6 7 8 8 9 9 9 10 10
Wind_Direction
140 142 150 159 160 160 160 158 161 160 162 163 165 168 167 163 161 161 157 154 151 150 147 144 140 136 135 135 133 132 134 133 131 125 125 128 132 134 134 132 127 124 121 120 117 116 114 113 113 109 107 106 102 99 100 99 95 98 98 95 99 96 92 95 96 92 89 88 89 87 81 82 82 72 61 60 61 58 64 66 68 76 70 65 68
141 141 150 158 160 161 161 160 162 162 164 163 166 168 167 164 163 163 160 156 152 150 148 145 142 141 141 138 134 131 134 135 134 131 129 130 133 135 134 131 127 127 125 126 125 124 122 120 118 111 109 110 107 103 101 100 99 106 109 106 106 101 96 94 93 92 93 92 91 92 83 79 80 70 66 66 65 62 63 65 69 75 71 69 70
135 139 149 157 161 161 161 162 162 163 165 165 166 167 166 165 165 165 161 156 152 151 150 147 146 146 146 143 138 134 135 135 135 135 134 134 135 132 130 131 129 129 130 132 131 129 124 121 119 115 113 112 111 107 106 106 102 109 116 114 112 108 107 98 90 94 94 93 91 89 82 77 76 73 71 67 67 65 61 67 73 74 73 74 75
133 138 146 157 161 159 162 161 162 164 165 165 166 165 166 166 166 164 159 155 152 153 151 150 150 149 148 144 140 137 136 135 134 133 135 138 140 136 134 135 132 133 135 136 134 131 128 126 122 119 118 115 116 111 114 117 107 108 115 112 116 115 110 98 92 97 100 106 97 83 78 79 76 72 71 67 67 66 66 73 75 72 72 75 76
136 141 145 154 158 158 161 160 162 163 164 165 164 164 165 166 164 161 156 154 153 153 153 154 153 150 147 143 141 139 138 136 135 135 136 141 145 144 143 141 138 140 140 139 136 134 133 130 127 122 122 120 120 115 116 123 114 106 111 112 117 117 106 98 96 94 95 102 93 76 78 85 79 71 71 70 68 71 75 74 72 69 72 76 73
136 141 142 147 151 157 160 159 162 162 163 162 162 163 164 164 161 158 155 153 153 155 156 156 154 150 147 145 144 141 140 139 138 137 137 142 147 147 146 145 144 144 143 143 139 136 137 134 130 125 125 123 121 118 116 121 119 112 113 116 120 118 108 103 99 94 96 96 81 75 81 86 84 76 72 74 71 70 71 69 70 70 73 77 75
136 140 142 145 147 156 159 158 160 160 161 160 161 161 161 160 158 156 153 153 154 157 158 156 154 151 150 148 147 146 146 143 138 137 137 139 145 146 144 146 145 145 145 144 141 139 140 137 134 130 130 126 121 120 119 122 125 124 121 124 127 120 111 104 95 83 78 78 80 85 84 86 88 83 75 75 71 64 65 67 71 70 69 72 74
138 141 144 145 149 158 158 157 157 157 158 158 159 157 158 157 156 155 153 155 157 159 158 157 155 154 153 151 150 150 149 145 139 137 136 135 141 143 142 144 144 145 144 143 143 142 142 142 138 135 134 126 123 123 121 123 127 130 128 131 130 121 111 99 89 79 66 67 87 82 76 90 93 88 82 75 68 65 68 67 68 69 67 70 74
140 143 146 145 154 158 157 156 155 156 156 157 156 155 156 156 155 155 156 158 159 161 160 159 158 156 155 154 154 152 150 147 145 144 140 138 143 145 143 143 143 146 146 146 146 145 145 144 140 136 135 126 123 124 121 122 128 132 130 127 123 117 109 94 83 73 64 73 83 73 72 91 97 91 85 75 67 68 72 67 66 67 68 72 75
140 144 147 148 155 157 156 156 155 156 156 156 155 155 156 156 157 157 159 161 162 163 161 161 158 157 157 156 154 153 152 151 153 152 146 143 144 143 141 142 144 146 146 145 144 146 147 146 144 139 132 128 127 124 120 124 129 129 123 118 118 114 106 94 75 58 59 71 74 78 78 85 92 89 84 79 71 69 71 67 66 68 72 76 76
139 146 148 150 154 155 155 156 157 157 157 157 156 157 158 158 159 160 161 162 163 163 162 161 158 159 158 157 155 154 156 157 160 156 151 150 148 142 136 139 144 144 142 140 139 144 151 150 147 141 136 137 137 129 121 121 121 117 114 114 114 108 101 85 55 42 67 79 80 89 84 80 85 87 87 81 72 71 73 70 66 67 74 80 78
140 146 146 150 154 154 154 156 157 158 159 158 157 158 159 159 159 160 160 160 162 162 162 160 159 161 158 158 156 155 160 163 160 152 152 156 155 147 135 135 140 142 141 137 137 140 148 152 149 143 146 149 146 136 127 119 114 108 107 112 111 102 87 67 53 53 74 79 81 83 79 80 84 88 88 79 75 78 79 73 64 67 76 81 79
142 141 142 150 154 155 155 156 157 158 159 158 157 157 157 157 158 158 159 160 162 164 163 161 162 162 158 158 153 154 159 158 153 149 151 154 155 149 139 135 134 138 139 139 143 146 150 151 151 146 145 152 156 151 137 122 109 101 103 109 113 103 85 65 58 73 77 77 79 81 80 81 86 88 83 79 81 78 72 65 59 69 79 78 76
138 135 139 149 154 156 157 157 158 158 158 157 156 155 155 156 157 159 161 163 164 165 164 162 162 160 157 154 151 151 150 150 150 148 151 151 151 147 139 135 131 134 138 139 142 145 145 144 146 147 146 152 159 152 126 121 104 81 96 109 119 113 99 67 55 79 82 80 82 86 88 85 88 89 82 79 82 75 68 67 64 70 75 76 76
132 138 141 149 153 156 159 159 158 157 157 156 155 155 155 156 158 161 163 163 163 163 163 162 162 159 153 151 148 145 142 146 145 144 151 149 147 145 138 133 128 133 138 135 133 134 133 136 149 156 158 157 152 145 132 147 172 299 252 142 122 119 107 57 51 88 85 84 88 89 90 88 88 87 84 80 81 79 74 73 71 71 69 71 75
137 147 143 150 153 158 161 160 158 155 156 155 156 156 155 157 158 162 163 161 161 163 165 163 161 159 155 151 148 146 143 143 139 139 146 143 143 145 140 136 133 134 138 136 135 140 141 144 160 168 166 162 156 159 159 167 191 221 225 166 126 121 91 63 65 97 87 87 94 94 92 91 88 86 86 81 81 80 77 76 75 74 62 64 72
140 146 142 149 156 163 160 157 158 155 156 155 157 158 157 158 159 163 162 160 164 166 168 165 161 160 158 156 153 150 146 142 139 138 140 139 141 146 148 146 140 137 139 141 142 148 152 152 162 175 173 170 172 174 168 170 182 184 184 154 130 114 90 74 77 90 85 84 89 97 95 92 90 87 87 83 80 79 79 78 81 73 50 60 73
138 143 141 151 159 163 157 156 158 154 154 154 158 160 159 159 158 161 162 163 166 168 166 164 163 160 158 157 154 150 145 140 138 138 141 141 141 145 152 152 143 141 143 147 152 156 163 164 168 174 177 179 185 186 168 166 172 166 160 148 130 114 95 84 91 93 90 85 87 95 93 89 90 90 88 85 82 81 82 82 85 69 49 61 70
133 144 142 152 162 163 156 156 157 156 155 153 157 160 159 158 157 158 160 163 167 166 160 161 164 160 157 154 152 149 144 141 140 144 147 143 143 146 151 151 144 143 148 152 157 163 171 180 181 180 183 182 185 189 167 153 153 158 155 144 135 119 82 69 99 106 93 80 89 91 86 91 92 92 91 86 86 84 86 85 81 69 57 62 63
126 149 147 150 162 164 157 158 163 163 159 155 156 158 158 156 154 152 156 163 167 163 156 159 159 157 156 150 149 146 143 142 142 147 149 144 144 149 149 147 146 146 153 155 157 160 162 164 168 172 175 178 179 179 163 141 141 155 157 152 141 107 43 52 99 109 102 87 93 87 82 98 95 96 94 87 90 87 87 83 79 76 61 57 57
121 144 148 147 160 166 161 161 168 166 163 159 155 155 155 151 149 151 159 166 164 160 156 156 153 154 155 148 142 138 141 145 146 151 152 150 151 155 151 148 150 152 154 155 158 157 157 152 147 141 147 168 171 169 161 143 148 159 163 158 140 94 50 96 102 105 111 98 94 84 91 104 100 101 97 90 94 87 84 84 85 84 69 59 52
120 135 145 150 160 166 163 164 168 166 165 161 154 154 154 152 154 158 164 165 159 158 157 157 156 158 158 150 142 141 149 152 154 156 156 156 158 159 154 155 158 157 157 156 159 163 164 158 142 127 125 148 153 156 164 157 161 170 173 164 154 158 141 127 109 104 104 102 94 83 102 113 109 107 102 100 100 90 88 96 94 86 83 71 46
124 134 148 158 164 167 168 166 167 166 163 160 156 157 158 159 161 161 163 161 158 161 161 163 166 164 165 159 151 156 163 162 160 160 163 160 160 161 158 162 163 163 163 160 164 172 174 162 136 123 122 137 148 162 173 168 171 177 178 172 183 184 152 140 125 108 96 104 99 85 115 123 115 111 105 105 107 99 95 99 94 83 80 62 43
129 137 150 165 170 173 171 162 165 169 164 160 161 162 162 164 164 160 162 162 161 164 166 171 176 171 175 171 160 167 172 167 166 168 164 159 163 165 164 167 170 171 168 168 175 178 181 173 139 125 135 160 173 183 177 169 172 178 180 183 191 173 154 154 133 118 98 96 94 102 129 132 120 117 108 104 108 107 104 100 96 85 66 52 48
133 141 150 164 174 181 173 157 161 167 165 162 165 167 166 167 164 162 163 162 161 168 174 179 182 180 187 180 158 173 182 170 172 176 163 163 171 171 170 171 174 176 173 175 183 186 182 179 161 148 169 188 188 183 174 171 173 179 182 182 180 167 167 156 124 126 113 94 92 119 137 141 129 122 114 109 107 107 112 106 96 84 57 59 69
139 147 150 159 171 180 175 164 160 164 165 162 165 166 165 166 164 165 165 160 161 169 175 183 193 191 195 184 159 175 184 173 178 178 174 183 179 174 180 180 184 183 182 184 186 189 180 182 191 185 185 177 171 174 173 173 172 177 178 173 170 174 173 144 118 119 124 113 107 127 144 148 139 130 123 118 113 110 115 97 86 78 53 72 90
145 150 151 156 164 172 174 172 164 164 165 162 162 161 161 163 165 168 163 162 166 170 175 188 204 200 198 187 165 178 184 178 186 182 182 194 184 181 187 186 196 193 194 193 182 186 176 182 201 190 177 166 168 174 171 173 172 173 169 171 173 172 167 141 128 116 122 120 108 123 146 154 148 137 129 127 126 119 120 106 97 90 67 91 98
146 149 150 153 160 164 168 169 161 159 162 162 162 163 162 161 167 169 163 173 173 171 180 187 198 200 201 193 164 179 203 191 191 187 186 196 187 186 189 186 197 199 203 195 175 183 175 174 191 181 172 167 168 175 169 166 164 168 162 169 173 168 171 149 129 120 124 122 112 117 139 154 150 141 134 129 136 134 133 128 120 115 87 105 110
149 150 149 151 158 158 162 163 157 157 160 162 163 166 168 165 169 171 174 182 174 169 179 181 188 197 204 205 181 191 211 210 202 196 191 198 186 182 191 193 198 203 205 196 175 180 170 164 177 170 165 164 168 174 166 158 157 169 162 165 173 163 162 148 135 141 134 126 122 119 131 147 146 144 140 131 139 143 141 141 130 133 108 114 134
152 151 150 154 159 157 159 159 156 157 157 160 164 166 171 172 172 174 181 182 175 177 178 182 189 193 200 201 219 209 206 225 229 216 192 194 188 177 190 196 195 203 203 190 171 168 160 158 169 164 163 162 159 163 162 156 158 166 166 167 170 156 152 158 156 148 135 132 128 119 126 143 145 142 142 139 144 141 138 143 142 147 139 118 137
155 156 154 156 157 158 161 159 156 156 157 159 161 165 170 174 173 175 179 174 174 180 183 200 201 200 194 181 226 227 206 221 234 223 199 198 202 186 194 197 192 202 202 181 164 162 154 156 164 155 151 149 147 161 160 155 155 158 175 174 160 159 159 160 151 136 131 136 130 123 124 130 141 147 150 149 145 145 142 140 142 141 141 128 133
161 161 155 155 157 160 163 162 161 159 161 159 158 163 166 169 172 173 173 170 170 176 197 213 209 200 185 194 226 227 210 217 225 217 205 202 209 203 204 202 193 198 196 174 161 159 154 154 153 141 135 133 138 148 147 151 153 155 172 168 157 167 159 140 126 128 136 135 132 135 130 118 122 135 153 162 155 155 152 144 148 141 134 123 121
163 158 152 155 159 159 160 162 163 161 162 161 159 161 162 167 172 166 161 161 168 184 203 209 205 186 183 224 230 222 218 222 223 211 208 211 213 215 209 202 197 199 193 168 158 158 156 153 149 144 137 132 134 133 142 152 145 146 151 119 162 154 125 128 127 125 134 136 149 147 140 136 126 117 120 141 156 164 165 160 161 153 152 144 133
158 156 153 156 159 154 156 164 167 166 165 161 160 162 164 164 161 154 146 147 171 191 200 208 207 184 189 230 229 228 223 221 222 209 212 221 213 212 207 198 192 196 190 168 167 165 157 158 154 149 143 136 131 127 135 136 114 134 119 73 148 97 83 107 121 127 131 127 158 152 139 148 148 141 127 105 127 160 164 165 167 165 168 162 147
154 156 155 155 156 151 155 166 173 176 170 163 164 169 171 168 155 145 147 154 177 192 204 221 224 213 210 212 227 236 225 222 227 211 213 223 216 209 204 197 187 191 189 179 180 165 155 163 158 148 144 140 132 125 127 114 97 118 118 96 137 74 78 101 117 148 142 124 148 149 142 156 165 173 161 159 162 140 111 117 128 142 165 176 167
151 155 155 153 154 153 156 166 175 176 164 162 169 166 154 159 152 143 158 173 189 204 219 230 236 232 221 218 232 235 223 228 229 214 213 215 214 206 193 185 178 188 194 187 187 162 152 160 153 149 148 146 140 133 132 126 116 121 125 120 132 127 105 110 122 135 119 117 140 146 153 166 176 180 180 208 223 163 75 67 81 95 128 168 188
149 151 151 153 158 157 161 169 171 165 159 157 156 146 121 130 147 157 169 179 197 215 212 217 231 224 218 227 234 221 207 225 224 216 214 210 212 198 180 171 168 185 190 179 190 164 150 152 145 152 155 156 152 143 142 143 144 148 146 134 128 123 93 92 107 96 90 104 116 138 152 157 176 191 193 205 231 213 140 81 96 117 135 152 203
146 145 144 154 164 163 167 165 153 148 159 159 143 155 149 143 156 166 170 171 184 200 191 198 217 215 214 220 224 210 203 218 218 216 216 212 211 182 178 169 161 188 184 170 188 162 144 158 152 160 170 169 159 148 150 152 155 155 137 121 116 120 96 93 111 103 104 96 77 100 124 145 172 217 211 211 231 221 202 217 206 153 157 145 146
138 131 134 150 163 166 167 151 147 147 156 165 156 161 161 151 157 163 170 172 173 181 181 187 197 203 202 195 204 206 202 206 204 211 215 213 206 177 173 156 150 194 190 178 193 179 156 169 162 168 182 179 164 146 141 147 149 122 117 121 130 123 103 114 115 108 114 101 93 106 101 159 184 256 255 237 224 185 166 223 206 150 161 139 107
116 113 128 151 158 166 164 146 154 159 157 166 155 153 166 166 167 166 166 164 159 159 160 163 168 174 175 171 179 178 181 191 189 201 212 205 204 186 169 152 153 196 194 174 189 196 181 175 173 181 184 181 173 159 148 147 129 98 106 118 124 99 66 90 104 108 121 113 113 108 102 113 127 236 288 276 239 183 151 160 152 129 148 148 109
103 126 150 168 168 169 168 151 157 159 155 162 156 169 183 176 168 160 148 141 141 142 136 130 132 139 148 150 153 148 150 170 176 187 195 183 185 187 177 161 161 187 193 169 177 191 178 173 177 180 185 183 177 172 171 166 138 110 106 99 89 74 64 192 193 114 122 115 113 95 90 82 74 68 3 345 328 295 141 135 126 118 139 152 103
140 176 173 168 164 169 170 151 148 154 157 167 176 190 185 155 140 133 127 126 127 131 127 117 117 125 132 132 134 139 147 162 165 162 170 176 176 176 181 162 151 167 183 167 167 177 170 173 178 177 187 192 187 174 175 180 162 135 128 118 116 92 101 233 316 116 140 121 127 113 106 99 78 65 30 22 15 18 84 108 108 128 140 128 97
163 183 170 148 151 156 136 110 109 129 154 159 162 156 110 104 102 92 91 96 97 97 104 107 110 112 108 114 125 135 148 156 154 154 162 171 175 166 162 151 139 155 179 170 164 167 169 179 189 189 188 192 196 181 192 205 154 133 146 147 147 156 173 187 163 138 125 113 127 122 123 115 95 79 43 38 36 38 43 51 69 76 99 111 112
159 161 139 128 148 116 67 81 100 134 154 127 107 97 93 97 93 84 81 87 95 95 97 99 99 100 95 93 106 121 137 142 151 163 164 164 176 178 174 181 160 154 176 182 171 169 172 179 188 195 201 205 198 177 209 236 154 134 146 157 156 170 185 171 161 146 136 137 127 97 93 88 87 87 68 64 56 56 51 45 55 52 75 104 108
144 134 129 137 152 141 107 119 131 158 160 122 115 113 107 104 98 98 94 99 112 116 112 106 102 104 98 92 93 102 116 122 135 146 142 153 170 175 173 177 166 154 162 174 177 179 181 180 180 186 208 226 206 170 201 235 216 155 151 152 167 188 222 172 159 148 139 135 124 103 87 71 73 72 67 71 67 63 59 53 58 57 64 80 83
118 122 136 146 150 146 151 143 138 156 154 130 137 130 116 115 111 114 116 121 127 124 122 121 118 113 104 103 100 97 106 114 121 122 127 142 140 148 169 156 156 159 159 160 165 179 182 180 179 185 204 228 217 188 197 219 236 202 173 176 191 182 178 178 168 146 134 115 106 101 90 83 75 72 70 65 61 56 56 58 60 62 62 67 76
114 124 135 135 134 134 144 144 135 142 148 143 147 131 118 124 125 123 125 129 122 114 117 117 113 107 105 112 108 106 116 120 129 132 135 144 141 155 194 182 179 181 165 162 169 184 190 189 191 192 200 209 211 209 198 192 206 202 184 178 182 198 189 188 183 147 146 132 108 90 74 72 67 66 68 69 68 59 57 64 64 65 67 70 78
134 145 149 139 134 131 123 126 132 142 157 162 147 131 131 136 132 124 113 113 115 117 119 114 110 109 114 122 121 124 124 120 129 131 126 131 134 144 154 183 180 175 169 161 170 186 188 189 191 189 193 194 199 218 203 187 195 190 186 181 174 186 199 197 200 175 164 142 128 108 81 75 69 65 65 68 73 69 63 65 69 70 69 71 73
141 149 155 152 149 148 135 126 131 140 150 153 144 141 144 139 128 118 109 112 121 126 126 118 115 119 123 124 122 121 117 114 122 122 120 120 115 111 108 108 108 125 142 134 138 152 154 159 162 158 168 171 168 180 180 194 211 183 178 186 173 167 182 196 208 240 228 155 134 123 110 102 86 76 74 78 80 78 71 66 68 72 72 73 71
127 137 146 153 164 168 160 149 141 137 141 144 144 147 144 138 134 127 119 123 133 136 129 124 125 129 132 130 131 131 128 126 120 116 106 92 95 98 93 96 88 76 83 102 120 130 135 139 138 135 135 140 146 149 163 190 208 189 181 188 181 164 171 186 184 210 220 158 126 136 136 126 104 91 86 94 95 89 82 72 68 69 71 72 70
140 157 158 159 167 177 179 169 156 156 161 157 150 146 147 154 153 139 127 130 141 144 137 139 143 142 142 143 146 144 137 136 127 115 98 87 90 95 97 95 84 79 80 89 110 124 129 130 129 129 126 124 127 132 141 134 145 178 179 165 164 138 154 171 164 190 204 139 125 143 136 125 117 111 99 92 89 86 84 79 76 72 69 70 71
Height
752 754 758 761 765 767 770 771 773 774 776 778 780 782 783 786 788 789 791 792 793 795 796 797 798 798 800 800 802 803 804 805 806 807 808 809 810 810 810 811 811 812 812 813 813 814 814 814 815 815 815 816 816 816 816 816 816 816 817 818 818 818 818 818 818 818 818 819 819 819 820 820 820 820 821 821 821 820 820 820 820 820 820 820 819
751 755 758 761 765 767 770 771 774 775 777 778 780 782 784 786 788 790 791 793 794 796 797 798 799 800 801 801 803 804 805 806 807 808 809 810 811 812 812 813 813 814 814 815 815 815 815 815 816 816 817 817 817 818 817 818 817 817 818 819 819 819 819 819 819 819 820 820 820 821 821 821 822 822 822 822 822 821 821 821 821 821 821 821 821
751 757 758 762 766 768 771 772 774 775 778 779 781 782 784 786 788 790 791 793 795 797 798 799 800 801 802 803 804 805 807 807 808 809 810 811 813 813 814 814 815 815 816 816 816 816 816 816 817 817 818 818 819 819 819 819 818 818 818 819 820 820 820 821 820 820 821 820 820 820 821 822 823 823 824 823 823 823 823 823 823 822 822 823 822
753 759 759 763 766 769 771 773 775 776 778 779 781 783 784 786 788 790 792 794 795 798 799 800 802 802 803 804 805 806 807 808 809 810 811 812 813 814 815 816 816 817 817 818 818 818 818 818 818 819 819 819 820 820 820 819 819 820 819 820 820 821 821 821 821 821 821 821 821 821 823 824 825 825 825 825 825 824 824 824 824 824 824 824 824
755 760 761 765 768 771 772 774 776 777 779 780 782 783 784 786 788 791 793 795 797 799 800 802 803 804 805 805 807 807 809 810 810 811 812 813 814 815 816 817 817 818 819 819 819 819 819 820 820 820 820 821 821 821 821 820 821 821 821 821 821 822 822 822 822 821 822 822 822 823 825 826 826 827 827 827 826 826 826 826 825 825 825 825 825
757 761 763 767 770 772 773 775 776 778 780 781 782 783 785 787 790 792 794 796 798 800 801 802 804 805 806 806 808 808 810 810 811 812 813 814 814 815 816 817 818 819 819 820 820 820 821 821 821 822 822 822 822 822 822 822 822 822 822 822 822 823 823 823 823 822 822 823 823 825 827 827 828 828 829 829 828 828 827 827 827 826 826 827 826
759 763 766 769 772 773 774 776 777 779 780 782 783 784 787 789 792 794 796 798 799 801 802 803 804 806 807 807 808 809 811 811 812 813 814 815 815 816 817 818 818 819 820 821 821 821 822 823 823 823 823 823 823 823 823 823 823 823 823 823 824 824 824 824 823 823 823 823 825 827 828 828 829 830 830 830 830 829 829 828 828 828 828 828 828
761 765 768 770 772 773 775 776 778 780 781 784 784 786 789 791 793 795 797 799 800 801 802 804 805 806 807 808 809 810 811 812 813 814 815 816 817 817 817 818 819 820 821 822 822 823 823 824 824 824 825 824 825 824 824 824 824 824 824 824 825 825 825 825 824 824 824 825 827 828 828 829 830 831 832 832 831 831 830 830 829 829 829 829 829
761 766 768 771 772 773 775 777 780 781 783 785 786 788 790 792 795 797 798 799 801 802 803 804 806 807 808 809 810 811 812 813 814 815 816 816 817 818 818 819 820 821 821 822 823 823 824 825 825 825 826 826 826 826 826 825 825 825 825 826 826 826 826 826 825 825 825 827 829 829 829 830 831 832 833 833 832 832 832 831 831 831 831 831 831
762 765 768 770 771 774 777 779 781 783 785 786 788 790 791 794 796 797 799 800 802 802 804 805 806 808 809 810 811 812 813 814 814 815 816 817 818 818 819 820 821 822 822 823 823 824 824 825 826 826 826 827 827 827 827 827 827 827 827 827 827 827 827 827 826 825 827 829 830 830 830 831 832 833 833 834 834 833 833 832 832 832 832 832 832
763 765 767 769 772 775 778 781 783 784 786 787 789 791 793 795 796 798 800 801 802 803 805 806 808 809 810 811 812 813 814 814 815 816 817 818 818 819 820 820 822 822 822 823 823 824 824 826 826 827 827 827 828 828 828 828 828 828 828 828 828 828 828 827 826 827 830 831 831 832 832 833 834 834 835 835 835 834 834 834 834 833 833 833 834
764 765 768 770 773 776 779 782 784 785 787 788 790 792 794 795 797 799 801 802 803 805 806 807 809 810 811 812 813 813 814 815 816 817 818 818 819 820 821 821 822 823 823 824 824 825 825 826 826 827 827 828 829 829 829 829 829 829 829 829 829 829 828 828 827 829 831 831 833 833 834 835 835 836 836 836 836 836 836 835 835 835 835 835 835
765 768 771 773 774 777 780 782 784 786 788 790 791 793 795 796 799 800 802 803 804 806 807 808 809 811 812 813 813 814 815 816 817 818 818 819 820 820 821 822 822 824 824 824 825 825 825 826 827 827 828 829 829 829 830 830 830 830 830 830 830 829 829 828 828 831 832 833 834 834 836 836 837 837 837 837 837 837 837 837 836 836 837 836 837
768 771 774 776 777 779 780 783 784 786 789 791 793 795 796 798 799 801 803 804 806 807 808 809 810 811 812 813 814 815 816 817 818 818 819 819 820 821 821 822 823 824 825 825 825 825 826 826 827 828 828 829 829 829 829 830 830 831 831 831 830 830 829 828 830 832 833 834 834 835 837 837 838 839 839 839 839 839 838 838 838 838 838 838 838
771 774 776 778 780 782 783 785 786 788 790 791 794 796 797 799 800 802 805 806 807 808 809 810 811 812 813 814 815 815 817 818 819 819 820 820 821 822 822 823 824 825 825 825 826 826 826 827 828 828 829 829 829 829 829 830 830 831 831 831 831 830 830 829 831 834 834 834 835 836 837 838 839 840 840 840 840 840 840 839 839 839 839 839 839
772 775 778 780 783 784 785 787 788 790 791 793 795 797 799 800 801 803 805 807 808 809 810 811 812 813 814 815 815 816 817 818 819 820 820 821 822 822 822 824 824 825 826 826 826 827 827 827 828 829 829 829 829 829 829 830 830 831 831 832 832 831 831 829 832 834 834 835 835 837 838 839 840 841 841 841 841 841 841 841 841 840 841 841 841
773 776 779 782 784 785 787 790 790 791 792 794 795 797 800 800 802 804 805 806 808 810 811 812 813 814 815 816 816 817 818 819 820 821 821 822 823 823 823 824 825 826 826 826 826 827 827 828 828 829 830 830 829 829 829 830 830 831 831 832 832 832 832 830 832 834 835 835 836 837 839 840 841 841 841 842 842 842 842 842 842 842 842 842 842
774 777 779 782 784 786 789 792 792 792 793 794 796 798 799 801 803 804 805 806 808 809 811 813 814 815 816 816 817 818 819 820 821 822 822 823 823 823 824 825 825 826 826 826 826 827 827 827 828 829 829 830 830 829 829 830 831 831 832 832 833 833 832 831 833 835 836 836 837 838 839 841 841 842 842 842 843 843 843 842 843 843 843 843 843
777 778 779 783 785 787 788 791 793 793 794 795 797 799 800 801 802 804 805 806 808 809 810 812 814 816 817 817 818 818 820 820 821 822 822 823 823 824 824 825 826 827 826 826 826 827 827 827 828 828 829 829 829 830 830 830 831 832 832 833 833 833 833 832 834 835 836 837 838 838 839 841 842 843 843 843 843 843 843 843 843 843 844 844 844
777 779 780 782 783 786 787 790 793 794 794 795 797 799 801 802 802 804 805 806 808 808 810 812 814 816 817 818 819 819 820 821 821 822 823 823 823 824 825 825 826 827 827 826 827 827 827 828 828 828 828 828 829 829 830 831 831 832 833 833 833 833 833 833 834 835 837 838 838 838 840 842 843 843 843 843 843 844 844 844 844 844 844 845 845
778 779 781 782 782 785 786 788 791 794 794 795 798 799 801 802 803 804 805 807 807 808 810 812 814 816 818 818 819 820 821 821 822 822 823 823 824 825 825 826 827 827 826 826 827 827 828 828 828 828 828 828 829 829 830 831 832 832 833 833 833 834 834 834 835 836 837 838 838 839 840 842 844 844 844 844 844 844 844 844 845 845 845 845 845
779 779 780 781 782 785 787 789 790 792 794 796 798 799 801 802 803 804 806 807 807 808 809 811 814 816 817 819 820 821 821 821 822 822 823 824 825 826 826 826 827 827 826 826 826 827 827 828 828 828 828 828 829 830 831 831 832 832 832 833 833 834 835 835 835 836 837 838 838 839 840 842 844 844 844 844 844 844 844 845 845 845 845 845 846
778 778 779 781 782 783 786 788 789 791 793 796 798 799 800 802 803 804 805 806 807 808 809 811 813 816 818 819 820 821 821 821 822 823 824 825 826 827 827 827 827 827 827 826 826 827 827 828 828 828 827 828 828 830 831 831 832 832 832 833 833 834 835 835 835 836 838 839 839 840 840 842 843 844 844 844 845 845 845 845 845 845 845 846 846
778 779 780 781 782 783 785 787 788 790 793 796 798 799 800 802 803 804 806 806 807 808 810 812 813 815 817 819 820 821 821 821 822 824 824 826 827 827 827 827 827 827 827 826 826 827 827 828 828 828 827 828 828 829 830 831 832 832 832 832 833 834 834 834 835 836 838 838 840 840 840 842 843 844 844 844 845 845 845 845 845 845 846 846 847
777 779 780 780 781 783 785 786 787 790 793 795 796 797 800 802 804 805 806 806 807 809 810 812 813 815 817 819 821 820 820 820 822 824 825 826 827 828 828 828 827 826 826 826 827 827 827 828 828 827 827 828 828 829 830 830 831 832 832 832 833 833 834 834 835 836 837 838 839 840 840 841 842 843 844 845 845 845 845 845 845 846 846 847 847
777 778 779 780 781 782 784 786 787 790 792 794 795 796 799 802 804 805 805 806 807 808 810 811 812 814 817 819 822 822 821 821 822 823 825 826 828 829 829 829 828 826 826 826 827 827 828 828 828 827 827 828 828 829 829 830 831 831 832 832 833 833 833 834 835 836 837 838 839 840 840 841 842 843 844 845 845 845 845 846 846 846 846 847 847
776 777 779 780 781 782 784 785 788 790 791 793 795 796 799 801 803 804 805 806 807 808 810 811 812 814 816 818 821 823 822 822 822 823 826 827 828 829 829 829 828 826 825 826 826 826 827 827 827 827 827 827 828 828 829 830 830 830 831 832 832 833 833 833 835 837 837 838 839 839 840 841 842 843 844 844 845 845 845 846 846 847 847 847 848
775 777 778 780 781 782 783 785 788 791 792 794 795 796 798 800 801 802 803 805 806 807 809 811 812 814 816 818 820 822 821 822 822 823 826 827 827 827 826 828 829 827 826 826 826 825 825 826 827 827 827 827 827 828 828 829 830 830 831 831 831 832 833 833 835 837 837 838 839 839 840 841 842 842 843 844 845 845 845 846 846 847 847 847 848
774 775 777 779 781 781 783 785 787 790 792 793 793 794 796 798 799 800 801 804 806 807 809 811 812 814 816 818 820 821 820 821 821 822 824 825 825 825 825 827 828 828 826 825 824 824 824 825 826 826 826 827 827 827 827 828 830 830 830 831 831 831 832 833 834 836 837 838 839 839 840 841 842 843 843 844 844 845 845 846 846 847 847 847 847
773 775 777 779 780 781 783 784 786 789 791 792 792 793 794 796 798 800 802 804 806 807 809 810 811 813 816 819 820 819 820 821 821 821 822 823 824 825 825 826 826 826 825 824 823 824 824 825 825 825 825 826 826 827 827 828 829 829 830 830 830 831 832 833 834 835 836 838 839 839 840 841 842 843 843 844 844 844 845 846 846 847 847 847 847
773 775 777 778 780 781 783 784 786 788 789 790 791 792 794 796 797 800 802 805 807 807 808 809 811 813 816 819 818 817 819 821 822 822 822 822 823 825 825 825 824 824 823 822 823 823 823 824 824 824 825 825 826 826 827 828 829 830 830 829 830 831 832 833 834 834 836 838 839 840 841 842 843 843 843 844 844 844 845 845 846 847 847 847 848
772 774 776 778 779 781 782 784 786 787 789 790 791 792 793 796 798 801 803 805 806 807 807 809 811 813 816 817 816 816 819 821 821 822 822 822 823 824 824 824 823 822 822 821 822 822 822 824 824 824 825 825 826 826 827 828 829 830 830 830 831 831 832 833 834 835 837 838 839 841 842 843 843 843 843 844 844 844 844 845 846 847 847 848 849
772 774 776 778 779 781 783 784 786 788 789 790 792 793 795 797 800 802 804 805 806 806 807 808 811 813 815 815 816 817 820 821 821 821 822 822 823 824 823 823 823 823 822 820 821 822 822 823 824 824 824 825 826 826 828 829 830 830 830 831 832 832 833 834 835 836 838 839 840 840 841 842 843 843 844 844 844 844 844 845 846 847 847 848 849
772 774 776 778 780 781 783 785 786 788 789 791 793 794 797 799 801 803 805 806 806 806 807 809 811 812 813 815 817 819 820 820 820 820 821 821 822 822 823 823 823 823 822 820 821 821 822 823 823 823 824 825 826 827 828 829 830 831 832 833 834 834 835 835 836 837 838 839 840 840 841 842 843 843 844 844 844 844 845 845 846 847 847 848 849
771 774 776 777 780 781 783 785 787 789 790 792 794 796 799 800 802 804 806 806 807 807 808 809 810 812 813 815 817 817 818 818 818 819 820 820 820 820 822 822 823 822 821 821 822 821 821 822 822 823 824 824 826 827 828 829 831 832 833 835 836 835 835 836 836 837 838 839 840 840 841 842 842 843 843 844 844 845 845 846 847 847 847 848 848
772 775 777 778 780 782 784 785 787 789 792 795 797 800 803 804 806 807 807 808 808 809 809 809 810 811 812 813 814 814 815 816 817 817 819 820 819 819 820 821 822 821 821 822 823 822 822 822 823 823 824 824 825 827 828 830 832 833 835 836 837 836 836 836 837 837 838 838 839 840 841 841 842 843 843 843 844 845 846 847 847 847 847 848 848
774 776 778 780 782 783 785 787 789 791 794 796 799 803 807 808 808 808 809 809 809 810 810 809 809 811 811 812 812 813 813 814 815 815 817 818 817 818 819 820 821 820 821 822 822 822 822 823 823 824 824 824 825 827 829 831 832 834 835 836 837 837 836 837 838 838 838 839 839 839 840 840 841 842 842 843 844 845 847 847 847 846 847 847 848
776 778 780 782 783 784 786 787 790 794 795 797 801 804 806 807 808 808 810 810 810 811 810 809 810 811 811 811 811 811 812 813 813 813 815 815 815 816 818 819 820 819 820 822 822 822 823 824 824 824 825 825 825 827 829 830 832 833 834 836 837 837 837 838 838 838 838 839 839 839 839 840 841 841 842 842 843 845 847 847 846 846 846 847 847
778 780 782 784 784 784 786 788 791 795 797 799 802 803 802 805 808 808 809 810 811 811 811 810 811 811 810 810 810 810 810 810 811 812 813 813 813 814 816 819 819 818 819 822 822 822 823 824 824 825 825 825 826 827 828 830 832 833 834 835 837 837 837 838 838 838 839 839 839 839 839 839 840 841 841 842 843 845 846 846 845 845 846 846 847
781 784 785 785 784 784 786 788 791 794 797 799 802 802 802 804 806 807 808 809 810 810 810 810 810 810 809 809 809 809 809 809 810 810 811 812 812 813 814 817 819 817 818 822 822 823 824 824 824 825 825 825 827 828 829 831 832 833 834 836 837 837 838 839 839 839 839 840 839 839 839 839 840 841 841 842 843 843 844 845 845 845 846 846 846
785 786 785 783 783 785 786 788 791 795 797 799 802 804 804 804 804 805 806 807 809 809 809 810 809 809 809 808 808 808 809 809 809 809 810 811 812 812 814 817 819 817 817 821 822 822 823 824 825 825 826 826 827 828 830 832 833 834 835 837 838 838 839 840 840 840 840 840 840 840 840 840 840 841 841 841 842 842 843 845 845 845 846 846 846
784 783 782 783 785 786 788 790 793 797 800 803 805 805 803 803 803 804 805 806 808 808 809 809 809 809 808 808 808 808 808 809 809 809 810 811 812 813 814 816 819 818 818 820 822 822 824 824 825 826 826 826 827 828 830 832 834 835 837 839 840 840 840 841 841 841 841 841 841 841 841 841 841 841 841 841 842 842 844 846 846 846 846 847 847
779 780 783 786 788 789 791 794 798 801 804 805 805 803 801 802 802 803 805 806 807 808 809 809 809 809 809 809 809 808 809 809 810 810 811 811 812 814 815 817 819 820 819 820 822 823 824 825 825 826 826 826 827 828 829 831 834 837 838 839 840 842 842 842 842 842 842 842 841 841 841 841 841 841 841 842 842 843 844 845 846 846 847 847 847
780 783 787 790 790 792 795 796 797 800 802 802 801 800 801 801 802 803 804 806 807 809 809 810 810 810 810 810 810 810 810 811 811 811 812 812 814 815 816 817 819 821 820 820 822 824 824 825 825 825 826 827 827 828 830 831 833 836 838 839 840 843 844 842 841 842 842 842 842 841 841 841 841 841 842 842 843 843 844 844 845 846 847 847 847
782 785 787 789 790 793 798 798 797 798 800 800 800 800 801 802 803 804 805 806 808 809 810 810 811 811 811 812 812 812 812 813 812 812 813 814 815 816 816 817 819 821 821 820 821 822 823 824 825 825 826 828 827 829 831 831 832 834 836 838 841 844 844 842 842 842 842 842 842 842 842 842 842 842 842 843 843 844 845 845 845 846 846 847 848
785 787 787 790 792 794 799 800 798 799 800 801 802 802 802 803 804 805 807 807 808 809 810 811 811 811 812 813 814 814 814 815 815 815 815 815 816 816 817 817 819 820 822 822 822 822 823 824 824 824 826 827 827 829 830 831 832 834 836 837 838 841 842 842 842 842 843 842 842 842 843 843 843 843 843 844 844 845 845 846 846 847 847 848 848
785 787 788 790 793 796 799 800 799 800 802 803 803 804 805 806 807 807 808 809 809 810 811 812 812 812 813 814 815 816 816 816 817 817 817 817 818 818 818 818 819 820 822 823 822 822 823 823 823 824 825 826 827 828 829 830 831 833 835 836 836 837 840 841 840 840 842 843 843 844 844 844 844 844 844 845 846 846 846 847 847 847 848 849 849
780 782 785 789 792 795 798 800 802 803 805 806 805 805 807 808 808 809 809 810 811 812 813 813 813 814 815 815 816 816 817 817 818 818 818 819 819 819 819 819 820 820 821 822 823 823 823 823 823 824 825 825 827 828 829 830 830 831 833 835 836 837 838 839 839 841 842 843 844 845 845 846 846 846 846 846 847 847 847 848 848 848 849 850 850
780 781 783 786 790 792 794 798 802 804 806 806 806 806 808 809 810 810 811 812 813 813 814 814 815 815 816 816 816 817 818 818 819 819 819 819 819 820 820 820 820 820 820 821 823 823 823 824 824 824 825 826 827 828 829 830 831 831 832 833 835 836 838 838 839 842 842 841 843 845 846 847 847 847 848 848 848 848 849 849 849 849 850 851 851
786 788 788 788 790 791 793 796 798 801 803 805 806 807 808 809 811 812 812 812 813 813 814 815 816 816 817 817 818 818 819 819 820 820 820 820 820 820 821 821 821 821 821 822 823 824 824 824 825 825 826 827 828 828 829 831 831 831 831 832 833 835 838 839 840 842 840 838 841 843 845 846 847 848 849 848 849 849 849 850 850 850 851 852 853
781 784 786 787 788 790 792 793 795 799 802 804 807 808 808 810 811 812 812 813 813 814 814 815 816 817 818 818 819 819 820 820 821 821 821 820 821 821 821 822 822 822 822 823 823 824 824 825 825 826 827 827 828 829 830 831 832 831 832 832 833 834 836 837 839 839 837 837 840 842 843 844 847 849 849 849 849 849 850 850 851 852 852 853 854